[[{"header":{"parameterUnit":"m.s-1","parameterCategory":1,"la1":30.2991,"la2":30.254,"lo1":-89.0895,"lo2":-89.0444,"dy":0.0017,"dx":0.0017,"nx":28,"ny":28,"refTime":"2025-08-31T21:00:00:Z","depth":0,"parameterNumber":2,"parameterNumberName":"U-component_of_WINDS"},"data":[0,0,0,0,0,0,0,0,0,0,0,0,0,0,0,0,0,0,0,0,0,0,0,0,0,0,0,0,0,0,0,0,0,0,0,0,0,0,0,0,0,0,0,0,0,0,0,0,0,0,0,0,0,0,0,0,0,0,-4.7405,-4.7405,0,-4.7424,-4.7424,-4.7424,-4.7254,-4.725,-4.7245,-4.724,-4.7262,-4.7267,-4.7272,0,0,0,0,0,0,0,0,0,0,0,0,0,-4.7223,-4.7227,-4.7405,-4.7405,-4.7405,-4.7424,-4.7424,-4.7424,-4.7255,-4.7249,-4.7244,-4.7238,-4.726,-4.7266,-4.7272,0,0,0,0,0,0,0,0,0,0,0,0,0,-4.7278,-4.7228,-4.7405,-4.7323,-4.7316,-4.7423,-4.7424,-4.7424,-4.7256,-4.7249,-4.7242,-4.7236,-4.7259,-4.7266,-4.7273,-4.746,0,0,-4.7296,-4.7299,0,0,0,0,0,0,0,0,-4.7275,-4.7285,-4.7335,-4.7329,-4.7321,-4.7329,-4.7367,-4.7436,-4.7258,-4.7279,-4.724,-4.7232,-4.729,-4.7295,-4.7314,-4.7461,-4.7462,-4.7297,-4.7301,-4.7304,-4.7306,0,0,0,0,0,0,0,-4.7271,-4.7283,-4.7412,-4.7336,-4.7327,-4.7286,-4.7286,-4.738,-4.7324,-4.7277,-4.7264,-4.7269,-4.7285,-4.7307,-4.7313,-4.7463,-4.7296,-4.7303,-4.7308,-4.731,-4.7762,-4.7769,0,0,0,0,0,0,-4.7279,-4.7281,-4.7412,-4.7413,-4.728,-4.7295,-4.7295,-4.7334,-4.7323,-4.7314,-4.7275,-4.7261,-4.7298,-4.7305,-4.7313,-4.753,-4.7304,-4.7311,-4.7315,-4.7755,-4.7764,-4.7772,0,0,0,0,0,0,-4.7275,-4.7292,-4.7411,-4.7344,-4.7355,-4.7305,-4.7351,-4.7338,-4.7359,-4.7321,-4.7311,-4.7307,-4.7292,-4.7303,-4.7424,-4.7528,-4.7315,-4.7321,-4.7746,-4.7757,-4.7768,-4.7966,0,0,0,0,0,0,-4.7271,-4.7292,-4.7363,-4.7346,-4.736,-4.7522,-4.7357,-4.7343,-4.7373,-4.7354,-4.7349,-4.7341,-4.7288,-4.7414,-4.7432,-4.7535,-4.7327,-4.7736,-4.7751,-4.7764,-4.795,-4.7983,-4.8011,0,0,0,0,0,-4.7265,-4.7419,-4.7367,-4.7384,-4.7447,-4.7529,-4.7536,-4.7471,-4.7382,-4.7452,-4.7427,-4.7341,-4.7514,-4.7428,-4.7446,-4.7553,-4.7729,-4.7747,-4.7763,-4.7937,-4.7977,-4.801,0,0,0,0,0,0,-4.745,-4.7415,-4.7357,-4.7511,-4.7524,-4.75,-4.7587,-4.7516,-4.7555,-4.7537,-4.7454,-4.7455,-4.759,-4.7583,-4.7488,-4.7732,-4.7606,-4.7628,-4.7732,-4.7769,-4.7799,-4.7798,-4.7333,0,0,0,0,0,-4.7509,-4.7577,-4.7543,-4.7682,-4.7691,-4.7639,-4.7672,-4.762,-4.763,-4.7635,-4.7619,-4.7633,-4.7689,-4.7729,-4.778,-4.7948,-4.7944,-4.8031,-4.8061,-4.8086,-4.8106,-4.8192,-4.823,-4.7828,-4.7827,-4.7827,0,0,-4.7631,-4.762,-4.7669,-4.7719,-4.7722,-4.7795,-4.7644,-4.7728,-4.7781,-4.7648,-4.7761,-4.775,-4.776,-4.7905,-4.7969,-4.7904,-4.8216,-4.8108,-4.8128,-4.8134,-4.8214,-4.8252,-4.8286,-4.7839,-4.7837,-4.7835,0,0,-4.789,-4.7889,-4.8003,-4.801,-4.8017,-4.798,-4.8008,-4.7994,-4.7981,-4.8093,-4.7994,-4.8056,-4.8157,-4.8167,-4.8185,-4.8446,-4.8368,-4.8465,-4.8624,-4.8709,-4.8741,-4.8768,-4.886,-4.8894,-4.8484,-4.8485,-4.8485,0,-4.8041,-4.8146,-4.8071,-4.8161,-4.8185,-4.8066,-4.8181,-4.8191,-4.8215,-4.8235,-4.8162,-4.8284,-4.8282,-4.8427,-4.8491,-4.851,-4.8538,-4.8465,-4.8742,-4.8769,-4.8794,-4.888,-4.8915,-4.8496,-4.8495,-4.8494,-4.8493,0,-4.833,-4.8404,-4.8495,-4.852,-4.8554,-4.8656,-4.8597,-4.8641,-4.8586,-4.8557,-4.8672,-4.8665,-4.8711,-4.8742,-4.869,-4.888,-4.8839,-4.8756,-4.8627,-4.8845,-4.8925,-4.8957,-4.8513,-4.8509,-4.8505,-4.8503,0,0,-4.8708,-4.8687,-4.8722,-4.873,-4.8729,-4.8785,-4.8881,-4.8924,-4.8963,-4.8983,-4.9061,-4.9147,-4.9069,-4.9091,-4.9038,-4.9114,-4.9318,-4.902,-4.9019,-4.9075,-4.9525,-4.9587,-4.9627,-4.9266,-4.9272,-4.9277,-4.9524,0,-4.8959,-4.912,-4.9055,-4.9223,-4.9289,-4.9176,-4.9259,-4.9267,-4.9243,-4.9296,-4.9268,-4.933,-4.9223,-4.9235,-4.9304,-4.9279,-4.9407,-4.926,-4.9338,-4.9341,-4.9338,-4.9668,-4.9735,-4.9968,-4.9554,-4.956,-4.9563,0,-4.9274,-4.9304,-4.9478,-4.9462,-4.9488,-4.9564,-4.9597,-4.9649,-4.9655,-4.9632,-4.9655,-4.9585,-4.9677,-4.9549,-4.9675,-4.9576,-4.9604,-4.9596,-4.9603,-4.9607,-4.9465,-4.9681,-5.0041,-5.0075,-4.9612,-4.9608,-4.9605,0,-4.953,-4.9615,-4.9729,-4.974,-4.9725,-4.978,-4.9777,-4.9775,-4.9805,-4.9835,-4.9853,-4.9894,-4.9916,-4.9949,-4.9892,-4.9804,-5.0025,-4.9893,-5.0008,-5.001,-5.0059,-5.0057,-5.0428,-5.008,-5.0079,-5.0078,-5.0078,0,-4.9817,-4.9927,-4.9843,-4.9914,-5.0034,-4.9957,-5.0078,-5.0062,-5.0062,-5.0127,-5.0032,-5.0095,-5.0016,-5.0072,-5.0028,-5.0137,-5.0149,-5.0132,-5.0119,-5.014,-5.0142,-5.0156,-5.0138,-5.0087,-5.0085,-5.0084,-5.0082,0,-5.0123,-5.0072,-5.0188,-5.0163,-5.0159,-5.0249,-5.0227,-5.0291,-5.0258,-5.0342,-5.0357,-5.0307,-5.0367,-5.0313,-5.0372,-5.0341,-5.0487,-5.0452,-5.0485,-5.0475,-5.0592,-5.0582,-5.0985,-5.1033,-5.0655,-5.0659,-5.0662,0,-5.0309,-5.0391,-5.0374,-5.041,-5.0411,-5.0471,-5.05,-5.0428,-5.0462,-5.0473,-5.0536,-5.0587,-5.0625,-5.0726,-5.0695,-5.0738,-5.0702,-5.084,-5.0708,-5.0726,-5.0703,-5.0698,-5.0705,-5.0867,-5.0872,-5.0876,-5.0879,0,-5.0644,-5.0614,-5.0659,-5.0695,-5.0732,-5.0757,-5.0775,-5.081,-5.0735,-5.0778,-5.0838,-5.0867,-5.0924,-5.0977,-5.101,-5.1006,-5.0931,-5.092,-5.0949,-5.0971,-5.0986,-5.0978,-5.0557,-5.0911,-5.0908,-5.0906,-5.0904,-5.0903,-5.0895,-5.0961,-5.0959,-5.1012,-5.1017,-5.1035,-5.1093,-5.1067,-5.1115,-5.1155,-5.111,-5.1182,-5.1184,-5.122,-5.1225,-5.128,-5.1222,-5.1265,-5.1275,-5.1286,-5.1302,-5.0978,-5.1286,-5.1285,-5.1284,-5.1284,-5.1283,0,-5.1224,-5.1216,-5.1265,-5.1291,-5.1333,-5.1256,-5.1271,-5.1311,-5.1375,-5.1383,-5.1421,-5.1488,-5.1538,-5.151,-5.1553,-5.1602,-5.1569,-5.1616,-5.1611,-5.1611,-5.1353,-5.1323,-5.1642,-5.1642,-5.1642,-5.1642,-5.1642,-5.1642,-5.14,-5.1507,-5.1477,-5.1585,-5.1576,-5.1645,-5.166,-5.1676,-5.1681,-5.176,-5.18,-5.1781,-5.1775,-5.1815,-5.1857,-5.1848,-5.1867,-5.1927,-5.1905,-5.1665,-5.1629,-5.1596,-5.1567,-5.1932,-5.1933,-5.2158,-5.216,-5.2162]},{"header":{"parameterUnit":"m.s-1","parameterCategory":1,"la1":30.2991,"la2":30.254,"lo1":-89.0895,"lo2":-89.0444,"dy":0.0017,"dx":0.0017,"nx":28,"ny":28,"refTime":"2025-08-31T21:00:00:Z","depth":0,"parameterNumber":3,"parameterNumberName":"V-component_of_WINDS"},"data":[0,0,0,0,0,0,0,0,0,0,0,0,0,0,0,0,0,0,0,0,0,0,0,0,0,0,0,0,0,0,0,0,0,0,0,0,0,0,0,0,0,0,0,0,0,0,0,0,0,0,0,0,0,0,0,0,0,0,-1.5313,-1.5313,0,-1.5376,-1.5377,-1.5377,-1.5424,-1.5425,-1.5425,-1.5425,-1.5485,-1.5486,-1.5487,0,0,0,0,0,0,0,0,0,0,0,0,0,-1.5227,-1.5228,-1.5313,-1.5313,-1.5314,-1.5376,-1.5377,-1.5378,-1.5424,-1.5425,-1.5425,-1.5426,-1.5485,-1.5486,-1.5487,0,0,0,0,0,0,0,0,0,0,0,0,0,-1.5274,-1.5228,-1.5312,-1.5345,-1.5349,-1.5376,-1.5377,-1.5378,-1.5424,-1.5425,-1.5425,-1.5426,-1.5484,-1.5486,-1.5488,-1.5486,0,0,-1.5493,-1.5494,0,0,0,0,0,0,0,0,-1.5271,-1.5277,-1.5339,-1.5343,-1.5347,-1.5393,-1.5368,-1.5414,-1.5424,-1.5395,-1.5425,-1.5426,-1.5454,-1.5458,-1.5468,-1.5489,-1.5491,-1.5493,-1.5494,-1.5495,-1.5496,0,0,0,0,0,0,0,-1.5268,-1.5275,-1.5338,-1.534,-1.5345,-1.5355,-1.5362,-1.5377,-1.542,-1.5398,-1.5401,-1.5408,-1.5456,-1.5466,-1.547,-1.5492,-1.5493,-1.5495,-1.5496,-1.5497,-1.5514,-1.5513,0,0,0,0,0,0,-1.526,-1.5272,-1.5336,-1.5339,-1.531,-1.5356,-1.5364,-1.5377,-1.542,-1.5427,-1.5408,-1.541,-1.5463,-1.5468,-1.5472,-1.5472,-1.5495,-1.5497,-1.5498,-1.5514,-1.5513,-1.5513,0,0,0,0,0,0,-1.5258,-1.5266,-1.5333,-1.5307,-1.5316,-1.5357,-1.5371,-1.5378,-1.5389,-1.5428,-1.5435,-1.5411,-1.5464,-1.547,-1.5482,-1.5475,-1.5498,-1.5499,-1.5515,-1.5514,-1.5513,-1.5472,0,0,0,0,0,0,-1.5256,-1.5265,-1.5266,-1.5306,-1.5317,-1.5343,-1.5371,-1.5379,-1.5393,-1.5397,-1.5433,-1.5439,-1.5465,-1.5479,-1.5484,-1.5478,-1.5501,-1.5516,-1.5514,-1.5513,-1.5474,-1.547,-1.5466,0,0,0,0,0,-1.5253,-1.5251,-1.5265,-1.5273,-1.532,-1.5343,-1.5349,-1.538,-1.5392,-1.5392,-1.5417,-1.5438,-1.5475,-1.548,-1.5486,-1.548,-1.5516,-1.5515,-1.5513,-1.5476,-1.5471,-1.5466,0,0,0,0,0,0,-1.5206,-1.5256,-1.5273,-1.5285,-1.531,-1.5351,-1.5352,-1.5373,-1.5393,-1.5396,-1.5432,-1.5439,-1.5448,-1.5466,-1.547,-1.548,-1.5498,-1.5498,-1.5468,-1.5463,-1.5459,-1.5454,-1.5502,0,0,0,0,0,-1.5197,-1.5214,-1.5257,-1.5262,-1.5274,-1.5311,-1.5322,-1.5344,-1.537,-1.538,-1.5406,-1.5429,-1.5446,-1.5456,-1.5474,-1.5478,-1.5485,-1.5476,-1.5472,-1.5469,-1.5467,-1.547,-1.5466,-1.5508,-1.5508,-1.5508,0,0,-1.5179,-1.5209,-1.5216,-1.5254,-1.5275,-1.529,-1.5319,-1.5333,-1.5344,-1.5382,-1.5395,-1.5415,-1.5443,-1.5451,-1.5456,-1.5466,-1.5458,-1.5467,-1.5464,-1.5465,-1.5468,-1.5464,-1.546,-1.5507,-1.5507,-1.5508,0,0,-1.5152,-1.5177,-1.5185,-1.5206,-1.5239,-1.5264,-1.5266,-1.5304,-1.5319,-1.5334,-1.5362,-1.5375,-1.5403,-1.5422,-1.5435,-1.5416,-1.5436,-1.5421,-1.5399,-1.5401,-1.5398,-1.5395,-1.5386,-1.5383,-1.542,-1.542,-1.542,0,-1.5124,-1.5149,-1.5185,-1.5198,-1.5213,-1.525,-1.5257,-1.5275,-1.5311,-1.532,-1.5331,-1.5368,-1.539,-1.5402,-1.5398,-1.5408,-1.5409,-1.5416,-1.5396,-1.5393,-1.5391,-1.5383,-1.538,-1.5418,-1.5418,-1.5418,-1.5419,0,-1.5113,-1.5129,-1.5131,-1.5167,-1.5182,-1.5192,-1.5228,-1.5238,-1.5259,-1.5282,-1.5296,-1.5324,-1.5347,-1.5352,-1.5372,-1.5367,-1.5372,-1.5389,-1.5408,-1.5384,-1.5377,-1.5375,-1.5415,-1.5416,-1.5416,-1.5417,0,0,-1.5056,-1.5114,-1.5113,-1.513,-1.5169,-1.5182,-1.5193,-1.5218,-1.5226,-1.525,-1.5258,-1.5282,-1.5298,-1.5313,-1.5335,-1.5337,-1.5319,-1.5354,-1.5355,-1.5345,-1.5313,-1.5299,-1.5295,-1.5333,-1.5333,-1.5332,-1.531,0,-1.5035,-1.5058,-1.5091,-1.5102,-1.5117,-1.5153,-1.5162,-1.5186,-1.5208,-1.5223,-1.5247,-1.5262,-1.5283,-1.5292,-1.5296,-1.532,-1.5312,-1.5323,-1.5339,-1.5339,-1.5329,-1.5292,-1.5276,-1.5254,-1.5308,-1.5308,-1.5308,0,-1.5012,-1.5036,-1.5049,-1.5087,-1.5095,-1.5102,-1.5127,-1.5142,-1.517,-1.5185,-1.5203,-1.5227,-1.5239,-1.5257,-1.5272,-1.5278,-1.5287,-1.53,-1.53,-1.5301,-1.532,-1.5289,-1.5248,-1.5244,-1.5304,-1.5304,-1.5305,0,-1.4967,-1.5002,-1.5015,-1.5028,-1.5074,-1.5078,-1.5097,-1.5126,-1.5138,-1.516,-1.5168,-1.5191,-1.5202,-1.5218,-1.5247,-1.5258,-1.5259,-1.528,-1.527,-1.5269,-1.5266,-1.5266,-1.5224,-1.5276,-1.5276,-1.5276,-1.5276,0,-1.4938,-1.4944,-1.4995,-1.5002,-1.501,-1.5048,-1.5053,-1.5075,-1.5101,-1.5111,-1.5144,-1.5153,-1.5193,-1.5206,-1.5229,-1.5237,-1.5243,-1.5254,-1.526,-1.525,-1.5248,-1.5254,-1.5256,-1.5275,-1.5275,-1.5275,-1.5275,0,-1.4888,-1.4923,-1.4938,-1.4981,-1.4992,-1.4995,-1.5031,-1.5038,-1.5063,-1.5076,-1.5082,-1.5119,-1.5137,-1.5169,-1.5194,-1.521,-1.5212,-1.5224,-1.5203,-1.5206,-1.5194,-1.5193,-1.5152,-1.5148,-1.5205,-1.5204,-1.5204,0,-1.4866,-1.4872,-1.4915,-1.4926,-1.4944,-1.4961,-1.4974,-1.5012,-1.5024,-1.5057,-1.506,-1.508,-1.5098,-1.5124,-1.5153,-1.5172,-1.5183,-1.5167,-1.5186,-1.5175,-1.518,-1.5178,-1.5178,-1.5162,-1.5161,-1.5161,-1.516,0,-1.4822,-1.4839,-1.4859,-1.4884,-1.49,-1.4922,-1.4945,-1.4951,-1.4993,-1.5005,-1.5025,-1.5039,-1.5066,-1.5085,-1.5109,-1.5127,-1.5149,-1.5155,-1.5153,-1.5141,-1.5128,-1.5133,-1.5189,-1.5154,-1.5155,-1.5155,-1.5156,-1.5156,-1.4784,-1.479,-1.4822,-1.4843,-1.4865,-1.4885,-1.4894,-1.4921,-1.4938,-1.4964,-1.4986,-1.5002,-1.503,-1.5065,-1.5081,-1.5094,-1.5105,-1.5103,-1.5102,-1.51,-1.5095,-1.5129,-1.5099,-1.5099,-1.5099,-1.5099,-1.5099,0,-1.474,-1.4763,-1.4781,-1.4813,-1.4829,-1.4852,-1.4879,-1.489,-1.4905,-1.493,-1.4948,-1.4969,-1.4988,-1.5019,-1.504,-1.5044,-1.5054,-1.5047,-1.5046,-1.5049,-1.5086,-1.5084,-1.5038,-1.5038,-1.5038,-1.5038,-1.5038,-1.5038,-1.4718,-1.473,-1.4751,-1.4774,-1.4797,-1.4815,-1.4828,-1.4847,-1.4867,-1.489,-1.4906,-1.4927,-1.4954,-1.4977,-1.4995,-1.5004,-1.5008,-1.4998,-1.5009,-1.5041,-1.5047,-1.5052,-1.5051,-1.4999,-1.4999,-1.4972,-1.4971,-1.4971]}]]